Location: eljas
(40.1958°N, 6.8661°W)
Time: 15:27:36
(UTC+02:00)

Daily predictions for brighter satellites

Satellite Brightness Start Highest point End
(mag) Time Altitude Azimuth Time Altitude Azimuth Time Altitude Azimuth
SJ-6B 3.2 20:37:13 10° SE 20:41:01 44° ENE 20:44:55 10° N
SL-16 R/B 2.7 20:36:43 10° SSW 20:42:21 66° WNW 20:48:02 10° NNE
NOSS 3-2 (A) 3.9 20:36:33 10° SW 20:42:35 70° NW 20:49:12 10° NNE
CZ-4C R/B 4.2 20:39:29 10° W 20:44:08 28° NW 20:49:18 10° NNE
Abrixas 2.4 20:42:36 10° SW 20:45:35 68° SE 20:48:34 10° ENE
Cosmos 1484 Rocket 3.0 20:44:48 10° S 20:48:38 76° W 20:52:34 10° NNW
OAO 3 Rocket 3.9 20:44:17 10° WSW 20:48:46 44° S 20:53:19 10° ESE
Cosmos 1544 3.9 20:47:02 10° SSE 20:50:18 29° E 20:53:35 10° NNE
HJ-1C 4.4 20:47:51 10° SE 20:50:43 26° ENE 20:53:35 10° NNE
SAR-Lupe-4 3.5 20:50:54 10° SSE 20:54:27 76° ENE 20:58:01 10° N
FREGAT/IRIS 3.0 20:51:58 10° SSE 20:54:55 44° ENE 20:57:54 10° N
Cosmos 1758 3.4 20:52:22 10° S 20:56:22 57° E 21:00:25 10° NNE
Cosmos 1346 3.8 20:55:18 10° NNE 20:58:00 30° ENE 21:00:41 10° SE
Cosmos 1408 Rocket 3.4 20:54:28 10° N 20:58:49 76° E 21:03:07 10° SSE
SKYMED 2 4.4 20:54:47 10° N 20:59:03 55° WNW 21:03:17 10° SSW
Cosmos 1842 Rocket 4.5 20:56:49 10° SE 21:00:23 26° E 21:03:59 10° NNE
Spot 1 4.3 21:00:19 10° SSE 21:04:52 55° ENE 21:09:12 10° N
Cosmos 1378 4.4 21:01:35 10° NNW 21:05:10 46° W 21:08:44 10° SSW
CENTAUR R/B 2.9 21:03:22 10° S 21:08:53 40° ESE 21:14:59 10° NE
CZ-4B DEB 4.2 21:09:49 20° E 21:10:18 21° ENE 21:12:48 10° NNE
Helios 1A 3.3 21:06:20 10° SE 21:10:21 45° ENE 21:14:23 10° N
NOAA 12 4.1 21:07:55 10° SSE 21:13:11 88° WSW 21:18:31 10° NNW
Cosmos 1943 Rocket 3.7 21:11:26 10° N 21:14:59 17° NE 21:16:34 15° ENE
ASTEX 1 3.9 21:14:59 10° NNE 21:19:32 37° E 21:24:01 10° SSE
Cosmos 1452 Rocket 4.0 21:14:41 10° NNW 21:19:54 64° WSW 21:25:04 10° S
CZ-2D R/B 4.3 21:20:17 24° E 21:21:14 27° ENE 21:24:32 10° NNE
Cosmos 2369 Rocket 2.7 21:16:55 10° N 21:22:14 39° ENE 21:25:31 21° ESE
NOSS 3-2 (C) 4.5 21:17:04 10° WSW 21:22:57 48° NW 21:29:24 10° NNE
Meteor 1-28 Rocket 3.8 21:19:22 10° N 21:23:02 58° WNW 21:26:40 10° SSW
Cosmos 1943 3.5 21:17:47 10° S 21:23:05 43° ESE 21:28:23 10° NE
Cosmos 2251 Rocket 4.5 21:20:35 10° SSE 21:24:38 23° E 21:28:43 10° NE
Gbstr 26 Del rocket 3.3 21:20:42 10° SW 21:24:56 57° SE 21:28:37 18° ENE
Meteor 2-12 Rocket 4.4 21:18:52 10° S 21:25:02 89° E 21:31:13 10° N
Meteor 1-29 2.9 21:24:44 10° NNE 21:28:14 62° E 21:31:40 10° S
ALOS 2.5 21:24:36 14° SE 21:28:21 46° ENE 21:32:50 10° N
Resurs 1-3 3.5 21:24:26 10° SSE 21:28:46 65° ENE 21:33:08 10° N
Cosmos 1743 Rocket 3.4 21:25:02 10° N 21:29:28 77° E 21:33:51 10° S
Cosmos 1603 4.0 21:24:23 10° SSW 21:30:06 71° WNW 21:35:53 10° NNE
GPS 2-04 Rocket1 3.2 21:27:21 10° WSW 21:30:33 35° S 21:31:24 30° SE
H-2A R/B 3.4 21:31:18 32° E 21:31:58 35° ENE 21:35:30 10° N
Nadezhda 4 Rocket 3.9 21:28:19 10° N 21:34:37 83° E 21:40:49 10° S
Cosmos 1805 4.5 21:32:06 10° SSW 21:35:51 44° W 21:39:40 10° N
Resurs 01 Rocket 1.7 21:31:57 10° S 21:36:23 79° WSW 21:40:51 10° NNW
SL-8 R/B 3.9 21:32:29 10° WSW 21:37:15 69° NNW 21:40:19 22° NE
Cosmos 1420 Rocket 4.1 21:33:59 10° NNW 21:39:18 78° WSW 21:44:36 10° SSE
Helios 1B rocket 2.6 21:36:39 10° N 21:40:46 75° WNW 21:44:52 10° SSW
Cosmos 1092 Rocket 3.9 21:38:13 10° N 21:44:25 72° E 21:50:32 10° SSE
Cosmos 1953 4.2 21:44:46 10° SW 21:48:20 31° WNW 21:51:55 10° NNW
TELKOM 3 4.3 21:46:31 10° WNW 21:48:22 39° WNW 21:48:22 39° WNW
Spot 2 Rocket 4.1 21:47:38 10° S 21:52:34 56° W 21:57:31 10° NNW
Cosmos 2142 Rocket 4.5 21:46:27 10° S 21:52:42 62° E 21:58:59 10° NNE
Cosmos 1655 Rocket 4.3 21:47:56 10° N 21:53:50 43° ENE 21:55:14 37° ESE
USA 215 3.2 21:47:23 10° NE 21:53:58 82° SE 22:00:30 10° SW
Cosmos 1733 3.1 21:51:07 10° S 21:54:59 89° W 21:58:52 10° N
Cosmos 2026 Rocket 4.1 21:49:43 10° N 21:55:38 48° ENE 21:57:32 37° SE
ATLAS 5 CENTAUR R/B 4.0 21:53:33 10° W 21:57:33 24° NW 22:01:50 10° NNE
ISS -2.1 21:56:12 10° W 21:59:16 38° NNW 21:59:43 36° N
Cosmos 1634 Rocket 3.8 21:53:39 10° S 21:59:51 75° E 22:06:03 10° N
GP-B 3.0 21:55:49 10° N 22:00:14 62° E 22:00:28 61° ESE
Cosmos 1470 3.2 21:57:17 10° SSW 22:01:08 59° W 22:04:58 10° N
Envisat 4.3 22:04:58 25° NE 22:04:58 25° NE 22:07:53 10° N
Cosmos 1674 3.5 22:00:05 10° NNW 22:03:53 52° W 22:06:25 19° SSW
Cosmos 2058 4.2 22:00:50 10° N 22:02:59 27° NNE 22:02:59 27° NNE
Meteor 1-16 Rocket 4.0 21:59:57 10° S 22:05:09 62° E 22:10:24 10° NNE
ERBS 4.4 22:02:33 10° NNW 22:04:16 19° N 22:04:16 19° N
Cosmos 1174 4.3 22:04:57 10° SW 22:09:39 62° WNW 22:11:19 32° N
Cosmos 158 Rocket 4.0 22:05:54 10° SSW 22:10:45 73° WNW 22:15:38 10° NNE
Cosmos 2151 2.9 22:07:50 10° N 22:11:42 73° NNE 22:11:42 73° NNE
Meteor 1-11 4.1 22:11:39 10° N 22:17:27 71° E 22:18:16 61° SE
Cosmos 2195 Rocket 4.4 22:11:34 10° N 22:17:56 84° E 22:20:57 34° S
BREEZE-M DEB (TANK) 3.4 22:09:08 10° WNW 22:19:57 58° N 22:20:47 51° NE
Cosmos 839 Rocket 4.2 22:20:42 10° NNW 22:28:12 79° WSW 22:30:06 49° SSE
ERS-1 Rocket 3.8 22:35:46 39° N 22:35:46 39° N 22:39:02 10° N
Cosmos 1110 Rocket 4.5 22:44:35 10° NNW 22:49:29 58° W 22:49:29 58° W
Cosmos 1943 Rocket 2.7 22:53:47 10° NNW 22:58:06 54° NW 22:58:06 54° NW
CENTAUR R/B 3.7 22:53:45 10° WSW 22:59:29 39° NW 23:05:57 10° NNE
Cosmos 2369 Rocket 3.8 23:01:16 10° NW 23:06:03 29° WSW 23:07:21 26° SW
USA 215 4.5 23:34:32 29° N 23:36:33 35° NNW 23:42:21 10° W
